User: anonymous   Login
Location: Boca do Mato
(22.9085°S, 43.2930°W)
Time: 08:00:33
(UTC+00:00)
Language:

NOAA 6 - Orbit

View from above orbital plane
View from above orbital plane
View from above satellite
View from above satellite

Ground track
Ground track

The orbit data is extracted from the following two-line orbital elements,

1 11416U 79057A   20272.74376820  .00000043  00000-0  31691-4 0  9992
2 11416  98.6618 271.6732 0009502 312.0786  47.9589 14.33593850151936
Epoch (UTC): 28 September 2020 17:51:01
Eccentricity: 0.0009502
inclination: 98.6618°
perigee height: 773 km
apogee height: 786 km
right ascension of ascending node: 271.6732°
argument of perigee: 312.0786°
revolutions per day: 14.33593850
mean anomaly at epoch: 47.9589°
orbit number at epoch: 15193

The dashed part of the orbit path shows where the satellite is in the earth's shadow,  

DLR